User: anonymous   Login
Location: Unspecified
(54.1780°N, 0.0000°E)
Time: 09:23:30
(UTC+00:00)
Language:

Altair - Orbit

View from above orbital plane
View from above orbital plane
View from above satellite
View from above satellite

Ground track
Ground track

The orbit data is extracted from the following two-line orbital elements,

1    50U 60009B   19288.75771053 -.00000090 +00000-0 -52808-4 0  9991
2    50 047.2305 163.8253 0113799 313.6458 045.4940 12.20109244640221
Epoch (UTC): 15 October 2019 18:11:06
Eccentricity: 0.0113799
inclination: 47.2305°
perigee height: 1501 km
apogee height: 1683 km
right ascension of ascending node: 163.8253°
argument of perigee: 313.6458°
revolutions per day: 12.20109244
mean anomaly at epoch: 45.4940°
orbit number at epoch: 64022

The dashed part of the orbit path shows where the satellite is in the earth's shadow,  

DLR